ASL135 LYBE-LYTV

Flight info

Callsign ASL135
Flight time 0h 39m
Altitude 22000
Route VAL DCT MOJ/N0362F190 N732 POD
Aircraft B738/M-SDE2E3FGHIRWXY/LB1

Departure

Time 2026-05-04 12:56
Airport Belgrade Nikola Tesla Airport (LYBE)

Arrival

Time 2026-05-04 13:36
Airport Tivat Airport (LYTV)
Time Latitude Longitude Altitude Speed Heading
2026-05-04 12:36 44.81891 20.29249 0 ft 0 kts 302°
2026-05-04 12:45 44.81886 20.29260 305 ft 2 kts 306°
2026-05-04 12:45 44.81876 20.29278 306 ft 2 kts 313°
2026-05-04 12:46 44.81864 20.29294 305 ft 2 kts 329°
2026-05-04 12:46 44.81849 20.29301 306 ft 2 kts
2026-05-04 12:46 44.81835 20.29295 305 ft 1 kts 30°
2026-05-04 12:46 44.81831 20.29292 305 ft 0 kts 31°
2026-05-04 12:50 44.81837 20.29297 305 ft 3 kts 31°
2026-05-04 12:50 44.81875 20.29330 306 ft 10 kts 32°
2026-05-04 12:50 44.81950 20.29396 306 ft 16 kts 32°
2026-05-04 12:50 44.82060 20.29493 308 ft 20 kts 32°
2026-05-04 12:51 44.82141 20.29520 309 ft 10 kts 323°
2026-05-04 12:51 44.82188 20.29424 307 ft 15 kts 302°
2026-05-04 12:51 44.82254 20.29278 307 ft 20 kts 302°
2026-05-04 12:51 44.82335 20.29094 307 ft 23 kts 301°
2026-05-04 12:52 44.82413 20.28917 307 ft 9 kts 307°
2026-05-04 12:52 44.82423 20.28899 306 ft 0 kts 310°
2026-05-04 12:53 44.82426 20.28894 306 ft 2 kts 310°
2026-05-04 12:54 44.82451 20.28865 307 ft 7 kts 334°
2026-05-04 12:54 44.82513 20.28859 307 ft 10 kts 16°
2026-05-04 12:54 44.82578 20.28930 308 ft 14 kts 51°
2026-05-04 12:54 44.82617 20.29051 306 ft 13 kts 74°
2026-05-04 12:55 44.82620 20.29167 305 ft 7 kts 96°
2026-05-04 12:55 44.82592 20.29238 306 ft 14 kts 125°
2026-05-04 12:55 44.82440 20.29572 307 ft 74 kts 122°
2026-05-04 12:55 44.82046 20.30459 304 ft 137 kts 122°
2026-05-04 12:56 44.81463 20.31773 475 ft 172 kts 121°
2026-05-04 12:56 44.80816 20.33255 1136 ft 177 kts 121°
2026-05-04 12:56 44.80088 20.34525 2121 ft 167 kts 150°
2026-05-04 12:56 44.78889 20.34914 2607 ft 191 kts 176°
2026-05-04 12:57 44.77478 20.35007 3033 ft 213 kts 176°
2026-05-04 12:57 44.75928 20.35114 3406 ft 229 kts 175°
2026-05-04 12:57 44.74307 20.35271 4016 ft 236 kts 175°
2026-05-04 12:57 44.72646 20.35457 4637 ft 241 kts 175°
2026-05-04 12:58 44.70983 20.35664 5444 ft 238 kts 174°
2026-05-04 12:58 44.69369 20.35878 5873 ft 236 kts 174°
2026-05-04 12:58 44.67680 20.36115 5992 ft 250 kts 174°
2026-05-04 12:58 44.65944 20.36367 5996 ft 249 kts 173°
2026-05-04 12:59 44.64226 20.36619 5996 ft 248 kts 173°
2026-05-04 12:59 44.62523 20.36869 6025 ft 245 kts 173°
2026-05-04 12:59 44.60823 20.37124 5981 ft 246 kts 174°
2026-05-04 12:59 44.59123 20.37382 5985 ft 246 kts 173°
2026-05-04 13:00 44.57425 20.37635 5975 ft 245 kts 173°
2026-05-04 13:00 44.55736 20.37887 6007 ft 242 kts 173°
2026-05-04 13:00 44.54062 20.38138 5984 ft 242 kts 173°
2026-05-04 13:00 44.52393 20.38387 5993 ft 241 kts 176°
2026-05-04 13:01 44.50767 20.37966 5971 ft 240 kts 207°
2026-05-04 13:01 44.49545 20.36384 6063 ft 245 kts 233°
2026-05-04 13:01 44.48657 20.34232 6289 ft 267 kts 242°
2026-05-04 13:01 44.47832 20.31849 6870 ft 277 kts 243°
2026-05-04 13:02 44.46994 20.29371 7515 ft 283 kts 244°
2026-05-04 13:02 44.46140 20.26851 8228 ft 289 kts 244°
2026-05-04 13:02 44.45275 20.24317 8934 ft 294 kts 244°
2026-05-04 13:02 44.44381 20.21715 9673 ft 299 kts 244°
2026-05-04 13:03 44.43465 20.19066 10311 ft 305 kts 245°
2026-05-04 13:03 44.42537 20.16392 11050 ft 306 kts 245°
2026-05-04 13:03 44.41599 20.13701 11745 ft 309 kts 245°
2026-05-04 13:03 44.40649 20.10979 12453 ft 313 kts 245°
2026-05-04 13:04 44.39688 20.08230 13189 ft 316 kts 245°
2026-05-04 13:04 44.38716 20.05458 13930 ft 320 kts 245°
2026-05-04 13:04 44.37732 20.02653 14600 ft 323 kts 245°
2026-05-04 13:04 44.36735 19.99814 15306 ft 326 kts 245°
2026-05-04 13:05 44.35726 19.96942 16020 ft 329 kts 245°
2026-05-04 13:05 44.34710 19.94055 16704 ft 333 kts 245°
2026-05-04 13:05 44.33690 19.91175 17387 ft 337 kts 243°
2026-05-04 13:05 44.32245 19.88583 18019 ft 344 kts 219°
2026-05-04 13:06 44.30128 19.86968 18393 ft 357 kts 195°
2026-05-04 13:06 44.27606 19.86247 18557 ft 374 kts 188°
2026-05-04 13:06 44.25000 19.85679 18683 ft 392 kts 187°
2026-05-04 13:06 44.22260 19.85115 19033 ft 403 kts 187°
2026-05-04 13:07 44.19473 19.84542 19635 ft 405 kts 187°
2026-05-04 13:07 44.16689 19.83958 20331 ft 404 kts 187°
2026-05-04 13:07 44.13906 19.83365 21039 ft 404 kts 188°
2026-05-04 13:07 44.11129 19.82765 21706 ft 404 kts 188°
2026-05-04 13:08 44.08342 19.82157 22114 ft 403 kts 188°
2026-05-04 13:08 44.05576 19.81550 22109 ft 403 kts 188°
2026-05-04 13:08 44.02799 19.80940 22124 ft 405 kts 188°
2026-05-04 13:08 44.00009 19.80326 22112 ft 406 kts 188°
2026-05-04 13:09 43.97225 19.79715 22109 ft 405 kts 188°
2026-05-04 13:09 43.94441 19.79105 22110 ft 404 kts 188°
2026-05-04 13:09 43.91666 19.78496 22110 ft 404 kts 188°
2026-05-04 13:09 43.88874 19.77884 22120 ft 406 kts 188°
2026-05-04 13:10 43.86082 19.77275 22125 ft 406 kts 188°
2026-05-04 13:10 43.83326 19.76673 22123 ft 407 kts 188°
2026-05-04 13:10 43.80517 19.76059 22109 ft 408 kts 188°
2026-05-04 13:10 43.77715 19.75448 22112 ft 408 kts 188°
2026-05-04 13:11 43.74912 19.74838 22110 ft 408 kts 188°
2026-05-04 13:11 43.72106 19.74227 22108 ft 407 kts 188°
2026-05-04 13:11 43.69308 19.73619 22111 ft 407 kts 188°
2026-05-04 13:11 43.66511 19.73011 22116 ft 407 kts 188°
2026-05-04 13:12 43.63715 19.72404 22104 ft 406 kts 188°
2026-05-04 13:12 43.60917 19.71798 22108 ft 406 kts 188°
2026-05-04 13:12 43.58127 19.71193 22108 ft 406 kts 188°
2026-05-04 13:12 43.55340 19.70590 22111 ft 405 kts 188°
2026-05-04 13:13 43.52581 19.69993 22117 ft 406 kts 188°
2026-05-04 13:13 43.49787 19.69390 22114 ft 407 kts 188°
2026-05-04 13:13 43.46989 19.68786 22105 ft 408 kts 188°
2026-05-04 13:13 43.44182 19.68181 22099 ft 408 kts 188°
2026-05-04 13:14 43.41383 19.67578 22120 ft 407 kts 188°
2026-05-04 13:14 43.38578 19.66975 22111 ft 408 kts 188°
2026-05-04 13:14 43.35770 19.66371 22110 ft 409 kts 188°
2026-05-04 13:14 43.32960 19.65767 22093 ft 403 kts 188°
2026-05-04 13:15 43.30231 19.65182 22090 ft 391 kts 188°
2026-05-04 13:15 43.27557 19.64608 22093 ft 386 kts 188°
2026-05-04 13:15 43.24915 19.64042 22102 ft 384 kts 188°
2026-05-04 13:15 43.22259 19.63473 21927 ft 387 kts 188°
2026-05-04 13:16 43.19613 19.62908 21679 ft 383 kts 188°
2026-05-04 13:16 43.16983 19.62345 21298 ft 381 kts 188°
2026-05-04 13:16 43.14369 19.61787 20946 ft 379 kts 188°
2026-05-04 13:16 43.11807 19.61241 20588 ft 377 kts 188°
2026-05-04 13:17 43.09220 19.60690 20221 ft 375 kts 188°
2026-05-04 13:17 43.06649 19.60142 19864 ft 373 kts 188°
2026-05-04 13:17 43.04084 19.59596 19510 ft 372 kts 188°
2026-05-04 13:17 43.01532 19.59053 19150 ft 371 kts 188°
2026-05-04 13:18 42.98980 19.58512 18779 ft 370 kts 188°
2026-05-04 13:18 42.96442 19.57973 18421 ft 369 kts 188°
2026-05-04 13:18 42.93930 19.57260 18003 ft 368 kts 198°
2026-05-04 13:18 42.92343 19.56448 17758 ft 367 kts 203°
2026-05-04 13:19 42.90003 19.55083 17389 ft 365 kts 204°
2026-05-04 13:19 42.87683 19.53709 17002 ft 362 kts 204°
2026-05-04 13:19 42.85381 19.52348 16661 ft 359 kts 204°
2026-05-04 13:19 42.83090 19.51003 16310 ft 358 kts 204°
2026-05-04 13:20 42.80807 19.49670 15948 ft 356 kts 204°
2026-05-04 13:20 42.78531 19.48348 15606 ft 354 kts 204°
2026-05-04 13:20 42.76268 19.47038 15252 ft 353 kts 204°
2026-05-04 13:20 42.74013 19.45736 14898 ft 350 kts 204°
2026-05-04 13:21 42.71779 19.44447 14554 ft 348 kts 204°
2026-05-04 13:21 42.69558 19.43167 14219 ft 347 kts 203°
2026-05-04 13:21 42.67334 19.41888 13826 ft 347 kts 203°
2026-05-04 13:21 42.65118 19.40614 13499 ft 344 kts 203°
2026-05-04 13:22 42.62918 19.39351 13110 ft 343 kts 203°
2026-05-04 13:22 42.60757 19.38115 12771 ft 338 kts 204°
2026-05-04 13:22 42.58606 19.36884 12434 ft 336 kts 204°
2026-05-04 13:22 42.56451 19.35647 12080 ft 335 kts 203°
2026-05-04 13:23 42.54319 19.34423 11759 ft 333 kts 203°
2026-05-04 13:23 42.52191 19.33205 11414 ft 331 kts 203°
2026-05-04 13:23 42.50065 19.31989 11064 ft 330 kts 203°
2026-05-04 13:23 42.47960 19.30788 10644 ft 332 kts 202°
2026-05-04 13:24 42.45840 19.29578 10433 ft 324 kts 203°
2026-05-04 13:24 42.43796 19.28413 10188 ft 315 kts 203°
2026-05-04 13:24 42.41810 19.27280 10035 ft 303 kts 203°
2026-05-04 13:25 42.38104 19.24885 9432 ft 290 kts 221°
2026-05-04 13:25 42.36673 19.23060 9166 ft 283 kts 226°
2026-05-04 13:25 42.35279 19.21210 8881 ft 279 kts 225°
2026-05-04 13:25 42.33895 19.19379 8610 ft 278 kts 225°
2026-05-04 13:26 42.32509 19.17555 8343 ft 278 kts 225°
2026-05-04 13:26 42.31116 19.15733 8050 ft 279 kts 225°
2026-05-04 13:26 42.29718 19.13913 7773 ft 279 kts 224°
2026-05-04 13:26 42.28320 19.12097 7485 ft 278 kts 224°
2026-05-04 13:27 42.26927 19.10290 7239 ft 277 kts 224°
2026-05-04 13:27 42.25532 19.08482 6950 ft 278 kts 224°
2026-05-04 13:27 42.24134 19.06668 6681 ft 279 kts 224°
2026-05-04 13:27 42.22732 19.04857 6395 ft 279 kts 224°
2026-05-04 13:28 42.21330 19.03049 6166 ft 277 kts 224°
2026-05-04 13:28 42.19949 19.01266 6038 ft 273 kts 223°
2026-05-04 13:28 42.18594 18.99520 5842 ft 271 kts 223°
2026-05-04 13:28 42.17247 18.97790 5746 ft 265 kts 224°
2026-05-04 13:29 42.15955 18.96066 5623 ft 259 kts 231°
2026-05-04 13:29 42.15219 18.93909 5391 ft 254 kts 264°
2026-05-04 13:29 42.15263 18.91567 5176 ft 250 kts 279°
2026-05-04 13:29 42.15580 18.89271 4912 ft 249 kts 283°
2026-05-04 13:30 42.16176 18.87102 4615 ft 247 kts 307°
2026-05-04 13:30 42.17442 18.85626 4396 ft 238 kts 331°
2026-05-04 13:30 42.18928 18.84731 4138 ft 231 kts 339°
2026-05-04 13:30 42.20400 18.83998 4015 ft 218 kts 340°
2026-05-04 13:31 42.21785 18.83313 3763 ft 211 kts 339°
2026-05-04 13:31 42.23137 18.82633 3466 ft 202 kts 339°
2026-05-04 13:31 42.24423 18.81978 3221 ft 193 kts 338°
2026-05-04 13:31 42.25632 18.81360 2994 ft 180 kts 338°
2026-05-04 13:32 42.26786 18.80767 2809 ft 174 kts 337°
2026-05-04 13:32 42.27898 18.80194 2612 ft 170 kts 337°
2026-05-04 13:32 42.28993 18.79623 2398 ft 170 kts 336°
2026-05-04 13:32 42.30072 18.79087 2170 ft 156 kts 339°
2026-05-04 13:33 42.31051 18.78585 1904 ft 148 kts 335°
2026-05-04 13:33 42.32009 18.78078 1703 ft 152 kts 336°
2026-05-04 13:33 42.33013 18.77551 1692 ft 158 kts 336°
2026-05-04 13:33 42.34066 18.77069 1569 ft 161 kts 339°
2026-05-04 13:34 42.35122 18.76631 1449 ft 152 kts 339°
2026-05-04 13:34 42.36115 18.76170 1244 ft 150 kts 336°
2026-05-04 13:34 42.37094 18.75658 933 ft 153 kts 335°
2026-05-04 13:34 42.38026 18.74990 653 ft 151 kts 325°
2026-05-04 13:35 42.38883 18.74181 340 ft 147 kts 320°
2026-05-04 13:35 42.40279 18.72549 43 ft 109 kts 319°
2026-05-04 13:35 42.40740 18.72007 39 ft 68 kts 319°
2026-05-04 13:36 42.40930 18.71798 42 ft 13 kts 349°